This demonstration page uses our WeatherBlox Daily Observations layout. Learn more.

39.29038, -76.61219

Hourly Observations for October 27, 2019

Temp ( °F °C ) Dew Point ( °F °C ) Humidity (%) Winds ( mph kmh ) Pressure ( in mb ) Visibility ( mi km ) Precip ( " mm )
12:54 am 00:54 undefined 59 15 55 12.8 87 87 undefined N/A 30.1 1019 N/A 0 0
1:54 am 01:54 undefined 59 15 55 12.8 87 87 undefined N/A 30.07 1018 N/A 0 0
2:54 am 02:54 undefined 60 15.6 56 13.3 86 86 undefined N/A 30.05 1018 N/A 0 0
3:54 am 03:54 undefined 60 15.6 57 13.9 90 90 undefined N/A 30.01 1016 N/A 0.01 0.254
4:54 am 04:54 undefined 60 15.6 58 14.4 93 93 undefined N/A 29.95 1014 N/A 0.13 3.302
5:54 am 05:54 undefined 61 16.1 59 15 93 93 undefined N/A 29.92 1013 N/A 0.15 3.81
6:54 am 06:54 undefined 63 17.2 61 16.1 93 93 undefined N/A 29.87 1011 N/A 0.1 2.54
7:54 am 07:54 undefined 64 17.8 63 17.2 96 96 undefined N/A 29.85 1011 N/A 0.08 2.032
8:54 am 08:54 undefined 65 18.3 64 17.8 97 97 undefined N/A 29.81 1010 N/A 0.28 7.112
9:54 am 09:54 undefined 68 20 67 19.4 96 96 undefined N/A 29.79 1009 N/A 0.07 1.778
10:54 am 10:54 undefined 69 20.6 68 20 96 96 undefined N/A 29.78 1008 N/A 0.24 6.096
11:54 am 11:54 undefined 67 19.4 65 18.3 93 93 undefined N/A 29.79 1009 N/A 0.23 5.842
12:54 pm 12:54 undefined 69 20.6 66 18.9 90 90 undefined N/A 29.78 1008 N/A 0.02 0.508
1:54 pm 13:54 undefined 75 23.9 64 17.8 69 69 undefined N/A 29.8 1009 N/A 0 0
2:54 pm 14:54 undefined 78 25.6 60 15.6 54 54 undefined N/A 29.76 1008 N/A 0 0
3:54 pm 15:54 undefined 78 25.6 58 14.4 50 50 undefined N/A 29.75 1007 N/A 0 0
4:54 pm 16:54 undefined 77 25 52 11.1 42 42 undefined N/A 29.76 1008 N/A 0 0
5:54 pm 17:54 undefined 75 23.9 52 11.1 45 45 undefined N/A 29.8 1009 N/A 0 0
6:54 pm 18:54 undefined 73 22.8 52 11.1 48 48 undefined N/A 29.84 1011 N/A 0 0
7:54 pm 19:54 undefined 72 22.2 50 10 46 46 undefined N/A 29.88 1012 N/A 0 0
8:54 pm 20:54 undefined 70 21.1 50 10 49 49 undefined N/A 29.91 1013 N/A 0 0
9:54 pm 21:54 undefined 68 20 48 8.9 49 49 undefined N/A 29.94 1014 N/A 0 0
10:54 pm 22:54 undefined 66 18.9 48 8.9 52 52 undefined N/A 29.97 1015 N/A 0 0
11:54 pm 23:54 undefined 63 17.2 49 9.4 60 60 undefined N/A 29.98 1015 N/A 0 0

Powered by AerisWeather